| time (UTC) | temp C | wind direction | speed KPH | gust KPH | rain 1hr cm | rain 24hr cm | rain mn cm | humidity % | barometer mb |
| 20260510153422 | 13 | 22 | 16.1 | 33.8 | 0.00 | 0.00 | 0.00 | 56 | 1015.5 |
| 20260510150422 | 13 | 12 | 14.5 | 37.0 | 0.00 | 0.00 | 0.00 | 54 | 1015.7 |
| 20260510143424 | 14 | 73 | 16.1 | 33.8 | 0.00 | 0.00 | 0.00 | 53 | 1015.7 |
| 20260510133422 | 13 | 59 | 19.3 | 37.0 | 0.00 | 0.00 | 0.00 | 54 | 1016.0 |
| 20260510130428 | 13 | 46 | 16.1 | 37.0 | 0.00 | 0.00 | 0.00 | 55 | 1016.4 |
| 20260510120425 | 13 | 55 | 14.5 | 35.4 | 0.00 | 0.00 | 0.00 | 59 | 1016.9 |
| 20260510110423 | 13 | 55 | 17.7 | 32.2 | 0.00 | 0.00 | 0.00 | 61 | 1017.6 |
| 20260510103422 | 12 | 55 | 16.1 | 40.2 | 0.00 | 0.00 | 0.00 | 65 | 1017.8 |
| 20260510100420 | 12 | 30 | 14.5 | 30.6 | 0.00 | 0.00 | 0.00 | 66 | 1018.0 |
| 20260510093428 | 12 | 65 | 14.5 | 33.8 | 0.00 | 0.00 | 0.00 | 65 | 1018.1 |
| 20260510090420 | 12 | 33 | 16.1 | 32.2 | 0.00 | 0.00 | 0.00 | 66 | 1018.1 |
| 20260510083423 | 11 | 66 | 14.5 | 30.6 | 0.00 | 0.00 | 0.00 | 70 | 1018.2 |
| 20260510073422 | 11 | 51 | 12.9 | 25.7 | 0.00 | 0.00 | 0.00 | 76 | 1018.2 |
| 20260510063422 | 10 | 13 | 12.9 | 30.6 | 0.00 | 0.00 | 0.00 | 79 | 1018.0 |
| 20260510060419 | 10 | 24 | 12.9 | 32.2 | 0.00 | 0.00 | 0.00 | 80 | 1017.6 |
| 20260510053428 | 10 | 84 | 11.3 | 30.6 | 0.00 | 0.00 | 0.00 | 82 | 1017.4 |
| 20260510050420 | 10 | 34 | 8.0 | 22.5 | 0.00 | 0.00 | 0.00 | 82 | 1017.5 |
| 20260510040424 | 9 | 27 | 4.8 | 17.7 | 0.00 | 0.00 | 0.00 | 85 | 1017.7 |
| 20260510033419 | 9 | 29 | 8.0 | 20.9 | 0.00 | 0.00 | 0.00 | 85 | 1017.6 |
| 20260510030424 | 9 | 64 | 6.4 | 20.9 | 0.00 | 0.00 | 0.00 | 84 | 1017.7 |
| 20260510023419 | 10 | 52 | 8.0 | 19.3 | 0.00 | 0.00 | 0.00 | 84 | 1017.8 |
| 20260510020411 | 10 | 37 | 8.0 | 17.7 | 0.00 | 0.00 | 0.00 | 85 | 1018.0 |
| 20260510013416 | 8 | 38 | 3.2 | 9.7 | 0.00 | 0.00 | 0.00 | 86 | 1018.1 |
| 20260510010419 | 8 | 11 | 1.6 | 6.4 | 0.00 | 0.00 | 0.00 | 86 | 1018.1 |
| 20260510003409 | 8 | 0 | 1.6 | 9.7 | 0.00 | 0.00 | 0.00 | 86 | 1018.2 |
| 20260510000411 | 8 | 11 | 3.2 | 9.7 | 0.00 | 0.00 | 0.00 | 85 | 1018.3 |
| 20260509230415 | 10 | 13 | 3.2 | 12.9 | 0.00 | 0.00 | 0.00 | 83 | 1018.5 |
| 20260509223410 | 10 | 40 | 6.4 | 14.5 | 0.00 | 0.00 | 0.00 | 82 | 1018.2 |
| 20260509220419 | 10 | 13 | 8.0 | 19.3 | 0.00 | 0.00 | 0.00 | 82 | 1018.0 |
| 20260509213404 | 11 | 40 | 8.0 | 17.7 | 0.00 | 0.00 | 0.00 | 79 | 1017.7 |
| 20260509210406 | 11 | 48 | 9.7 | 25.7 | 0.00 | 0.00 | 0.00 | 77 | 1017.8 |
| 20260509203404 | 12 | 68 | 8.0 | 20.9 | 0.00 | 0.00 | 0.00 | 73 | 1017.8 |
| 20260509200415 | 12 | 53 | 8.0 | 17.7 | 0.00 | 0.00 | 0.00 | 56 | 1017.3 |
| 20260509193406 | 13 | 57 | 9.7 | 17.7 | 0.00 | 0.00 | 0.00 | 51 | 1016.9 |
| 20260509190411 | 15 | 47 | 6.4 | 17.7 | 0.00 | 0.00 | 0.00 | 46 | 1016.5 |
| 20260509183414 | 16 | 112 | 12.9 | 25.7 | 0.00 | 0.00 | 0.00 | 38 | 1016.2 |
| 20260509180405 | 18 | 51 | 12.9 | 29.0 | 0.00 | 0.00 | 0.00 | 36 | 1015.9 |
| 20260509173421 | 18 | 90 | 19.3 | 32.2 | 0.00 | 0.00 | 0.00 | 35 | 1015.9 |
| 20260509170405 | 19 | 82 | 17.7 | 30.6 | 0.00 | 0.00 | 0.00 | 37 | 1015.7 |
| 20260509163414 | 20 | 95 | 14.5 | 29.0 | 0.00 | 0.00 | 0.00 | 36 | 1015.7 |